• In Hungary
  • List of Countries
  • For 7 days
  • Water Temperature
  • Satellite Maps
  • Weather Map
  • News
  • Weather Widgets
  • user-avatar
    Login

    Hourly Weather Podedwor

    Today, 20 November, Monday

    Time Temperature Precipitation Wind Pressure Humidity
    00:00 +1°C° 0.5 mm 6 mps 733 mmHg 81%
    01:00 +1°C° 0 mm 5 mps 733 mmHg 83%
    02:00 0°C° 0.1 mm 5 mps 733 mmHg 83%
    03:00 0°C° 0.1 mm 5 mps 733 mmHg 84%
    04:00 -1°C° 0.1 mm 6 mps 733 mmHg 84%
    05:00 -1°C° 0.2 mm 6 mps 734 mmHg 83%
    06:00 -1°C° 0.2 mm 7 mps 734 mmHg 82%
    07:00 -1°C° 0 mm 7 mps 735 mmHg 81%
    08:00 -1°C° 0.2 mm 7 mps 735 mmHg 80%
    09:00 -1°C° 0.2 mm 8 mps 736 mmHg 80%
    10:00 -1°C° 0.2 mm 8 mps 736 mmHg 79%
    11:00 -1°C° 0 mm 7 mps 737 mmHg 77%
    12:00 -1°C° 0 mm 7 mps 737 mmHg 75%
    13:00 -1°C° 0 mm 6 mps 737 mmHg 73%
    14:00 0°C° 0 mm 5 mps 737 mmHg 75%
    15:00 0°C° 0 mm 4 mps 737 mmHg 77%
    16:00 0°C° 0 mm 4 mps 738 mmHg 79%
    17:00 0°C° 0.1 mm 4 mps 738 mmHg 82%
    18:00 0°C° 0.1 mm 4 mps 737 mmHg 84%
    19:00 0°C° 0.1 mm 4 mps 737 mmHg 86%
    20:00 0°C° 0.1 mm 4 mps 738 mmHg 87%
    21:00 0°C° 0.1 mm 4 mps 738 mmHg 89%
    22:00 -1°C° 0.1 mm 4 mps 738 mmHg 90%
    23:00 0°C° 0 mm 3 mps 738 mmHg 91%

    Tomorrow, 21 November, Tuesday

    Time Temperature Precipitation Wind Pressure Humidity
    00:00 0°C° 0 mm 3 mps 738 mmHg 92%
    01:00 0°C° 0 mm 3 mps 738 mmHg 93%
    02:00 0°C° 0 mm 3 mps 738 mmHg 94%
    03:00 0°C° 0 mm 3 mps 738 mmHg 94%
    04:00 +1°C° 0 mm 2 mps 738 mmHg 95%
    05:00 +1°C° 0 mm 2 mps 738 mmHg 95%
    06:00 +1°C° 0 mm 2 mps 738 mmHg 95%
    07:00 +1°C° 0 mm 1 mps 738 mmHg 95%
    08:00 +2°C° 0 mm 1 mps 738 mmHg 92%
    09:00 +3°C° 0 mm 1 mps 738 mmHg 89%
    10:00 +4°C° 0 mm 1 mps 738 mmHg 86%
    11:00 +3°C° 0.1 mm 2 mps 738 mmHg 85%
    12:00 +3°C° 0.1 mm 2 mps 737 mmHg 83%
    13:00 +4°C° 0.1 mm 2 mps 737 mmHg 81%
    14:00 +3°C° 0.1 mm 2 mps 737 mmHg 84%
    15:00 +3°C° 0.1 mm 2 mps 737 mmHg 86%
    16:00 +2°C° 0.1 mm 2 mps 737 mmHg 88%
    17:00 +2°C° 0 mm 2 mps 737 mmHg 89%
    18:00 +2°C° 0 mm 2 mps 737 mmHg 90%
    19:00 +1°C° 0 mm 2 mps 737 mmHg 91%
    20:00 +2°C° 0 mm 1 mps 737 mmHg 91%
    21:00 +2°C° 0 mm 1 mps 737 mmHg 91%
    22:00 +2°C° 0 mm 1 mps 737 mmHg 91%
    23:00 +2°C° 0 mm 1 mps 737 mmHg 92%

    Day after tomorrow, 22 November, Wednesday

    Time Temperature Precipitation Wind Pressure Humidity
    00:00 +2°C° 0 mm 1 mps 737 mmHg 92%
    01:00 +2°C° 0 mm 1 mps 737 mmHg 92%
    02:00 +2°C° 0.1 mm 1 mps 737 mmHg 93%
    03:00 +2°C° 0.1 mm 1 mps 737 mmHg 93%
    04:00 +3°C° 0.1 mm 1 mps 737 mmHg 94%
    05:00 +2°C° 0.1 mm 2 mps 737 mmHg 94%
    06:00 +2°C° 0.1 mm 2 mps 737 mmHg 94%
    07:00 +3°C° 0.1 mm 2 mps 737 mmHg 94%
    08:00 +3°C° 0.1 mm 2 mps 737 mmHg 94%
    09:00 +4°C° 0.1 mm 2 mps 737 mmHg 93%
    10:00 +4°C° 0.1 mm 3 mps 737 mmHg 93%
    11:00 +5°C° 0.1 mm 3 mps 737 mmHg 91%
    12:00 +5°C° 0.1 mm 3 mps 737 mmHg 90%
    13:00 +7°C° 0.1 mm 3 mps 737 mmHg 88%
    14:00 +7°C° 0 mm 3 mps 737 mmHg 88%
    15:00 +5°C° 0 mm 3 mps 737 mmHg 88%
    16:00 +5°C° 0 mm 3 mps 737 mmHg 88%
    17:00 +5°C° 0 mm 3 mps 738 mmHg 89%
    18:00 +4°C° 0 mm 3 mps 738 mmHg 89%
    19:00 +4°C° 0 mm 3 mps 738 mmHg 89%
    20:00 +5°C° 0 mm 2 mps 738 mmHg 90%
    21:00 +4°C° 0 mm 2 mps 739 mmHg 90%
    22:00 +4°C° 0 mm 2 mps 739 mmHg 90%
    23:00 +4°C° 0 mm 2 mps 739 mmHg 90%

    23 November, Thursday

    Time Temperature Precipitation Wind Pressure Humidity
    00:00 +4°C° 0 mm 2 mps 739 mmHg 89%
    01:00 +3°C° 0 mm 2 mps 739 mmHg 89%
    02:00 +3°C° 0 mm 2 mps 739 mmHg 88%
    03:00 +3°C° 0 mm 2 mps 739 mmHg 88%
    04:00 +3°C° 0 mm 2 mps 739 mmHg 87%
    05:00 +3°C° 0 mm 2 mps 740 mmHg 86%
    06:00 +3°C° 0 mm 2 mps 740 mmHg 85%
    07:00 +3°C° 0 mm 2 mps 740 mmHg 84%
    08:00 +4°C° 0 mm 2 mps 740 mmHg 80%
    09:00 +4°C° 0 mm 3 mps 740 mmHg 75%
    10:00 +5°C° 0 mm 3 mps 741 mmHg 70%
    11:00 +7°C° 0 mm 3 mps 741 mmHg 67%
    12:00 +8°C° 0 mm 3 mps 741 mmHg 65%
    13:00 +9°C° 0 mm 3 mps 741 mmHg 62%
    14:00 +8°C° 0 mm 3 mps 741 mmHg 67%
    15:00 +8°C° 0 mm 3 mps 741 mmHg 71%
    16:00 +7°C° 0 mm 3 mps 741 mmHg 75%
    17:00 +5°C° 0 mm 3 mps 741 mmHg 77%
    18:00 +5°C° 0 mm 3 mps 742 mmHg 79%
    19:00 +5°C° 0 mm 3 mps 742 mmHg 81%
    20:00 +5°C° 0 mm 3 mps 742 mmHg 81%
    21:00 +4°C° 0 mm 3 mps 743 mmHg 82%
    22:00 +4°C° 0 mm 3 mps 743 mmHg 83%
    23:00 +4°C° 0 mm 3 mps 743 mmHg 84%

    24 November, Friday

    Time Temperature Precipitation Wind Pressure Humidity
    00:00 +4°C° 0 mm 3 mps 743 mmHg 85%
    01:00 +4°C° 0 mm 3 mps 744 mmHg 85%
    02:00 +4°C° 0 mm 3 mps 744 mmHg 86%
    03:00 +3°C° 0 mm 3 mps 744 mmHg 87%
    04:00 +4°C° 0 mm 2 mps 744 mmHg 88%
    05:00 +4°C° 0 mm 2 mps 744 mmHg 88%
    06:00 +4°C° 0 mm 2 mps 744 mmHg 89%
    07:00 +4°C° 0 mm 2 mps 745 mmHg 89%
    08:00 +5°C° 0 mm 2 mps 745 mmHg 86%
    09:00 +6°C° 0 mm 2 mps 745 mmHg 82%
    10:00 +8°C° 0 mm 2 mps 745 mmHg 79%
    11:00 +8°C° 0 mm 2 mps 745 mmHg 77%
    12:00 +9°C° 0 mm 2 mps 745 mmHg 75%
    13:00 +10°C° 0 mm 2 mps 745 mmHg 72%
    14:00 +9°C° 0 mm 2 mps 745 mmHg 77%
    15:00 +8°C° 0 mm 2 mps 745 mmHg 81%
    16:00 +7°C° 0 mm 2 mps 745 mmHg 85%
    17:00 +7°C° 0 mm 2 mps 745 mmHg 86%
    18:00 +7°C° 0 mm 2 mps 745 mmHg 87%
    19:00 +6°C° 0 mm 2 mps 745 mmHg 88%
    20:00 +6°C° 0 mm 2 mps 746 mmHg 89%
    21:00 +6°C° 0 mm 2 mps 746 mmHg 89%
    22:00 +6°C° 0 mm 2 mps 746 mmHg 89%
    23:00 +6°C° 0 mm 2 mps 746 mmHg 89%

    25 November, Saturday

    Time Temperature Precipitation Wind Pressure Humidity
    00:00 +6°C° 0 mm 2 mps 745 mmHg 88%
    01:00 +5°C° 0 mm 2 mps 745 mmHg 88%
    02:00 +5°C° 0 mm 2 mps 745 mmHg 88%
    03:00 +5°C° 0 mm 2 mps 745 mmHg 87%
    04:00 +5°C° 0 mm 2 mps 745 mmHg 86%
    05:00 +5°C° 0 mm 2 mps 745 mmHg 86%
    06:00 +4°C° 0 mm 3 mps 745 mmHg 85%
    07:00 +4°C° 0 mm 3 mps 745 mmHg 85%
    08:00 +5°C° 0 mm 3 mps 745 mmHg 80%
    09:00 +7°C° 0 mm 3 mps 745 mmHg 76%
    10:00 +8°C° 0 mm 3 mps 745 mmHg 71%
    11:00 +9°C° 0 mm 3 mps 744 mmHg 69%
    12:00 +10°C° 0 mm 3 mps 744 mmHg 67%
    13:00 +11°C° 0 mm 3 mps 743 mmHg 65%
    14:00 +10°C° 0 mm 3 mps 743 mmHg 71%
    15:00 +9°C° 0 mm 3 mps 743 mmHg 76%
    16:00 +8°C° 0 mm 3 mps 742 mmHg 81%
    17:00 +8°C° 0 mm 3 mps 742 mmHg 83%
    18:00 +7°C° 0 mm 3 mps 742 mmHg 84%
    19:00 +7°C° 0 mm 3 mps 742 mmHg 86%
    20:00 +7°C° 0 mm 3 mps 742 mmHg 86%
    21:00 +6°C° 0 mm 2 mps 742 mmHg 87%
    22:00 +6°C° 0 mm 2 mps 742 mmHg 87%
    23:00 +6°C° 0 mm 2 mps 742 mmHg 87%
    Show more